Location: Tel Aviv
(32.0670°N, 34.7670°E)
Time: 02:44:49
(UTC+03:00)

Vanguard 2 - Pass Details

Date: 24 January 2022
Orbit: 552 x 2935 km, 32.9° (Epoch: 26 May)

Event Time Altitude Azimuth Distance (km) Brightness Sun altitude
Rises 18:45:21 0° 226° (SW) 3,643 11.9 -20.8°
Reaches altitude 10° 18:47:37 10° 220° (SW) 2,928 11.2 -21.2°
Maximum altitude 18:54:40 48° 147° (SSE) 1,893 9.3 -22.7°
Enters shadow 18:58:54 34° 98° (E) 2,653 9.7 -23.6°
Drops below altitude 10° 19:06:19 10° 78° (ENE) 4,748 - -25.2°
Sets 19:11:01 0° 74° (ENE) 6,102 - -26.2°
